Tracking 28799 objects as of 18-Apr-2024
HD Live streaming from Space Station
objects crossing your sky now

COSMOS 1867 COOLANT

Track COSMOS 1867 COOLANT now!
10-day predictions


NORAD ID: 43325
Int'l Code: 1987-060AS
Perigee: 772.5 km
Apogee: 802.0 km
Inclination: 65.0 °
Period: 100.5 minutes
Semi major axis: 7158 km
RCS: Unknown
Launch date: July 10, 1987
Source: Commonwealth of Independent States (former USSR) (CIS)
Launch site: TYURATAM MISSILE AND SPACE COMPLEX (TTMTR)

Note: This is SATELLITE DEBRIS
Your satellite tracking list
Your tracking list is empty




NASA's NSSDC Master Catalog

Two Line Element Set (TLE):
1 43325U 87060AS  24107.59799872  .00001628  00000-0  62293-3 0  9990
2 43325  65.0109  67.3446 0020602 273.7330  86.1400 14.33474299485018
Source of the keplerian elements: AFSPC